Showing default

LEMUR 2 HUBBLE-5, 64840

Orbit data source: Space-Track

LEMUR 2 HUBBLE-5, 64840 is an American payload satellite in SSO that was launched on Mon, 23 Jun 2025 UTC via an FALCON 9 launch vehicle from the Air Force Western Test Range (AFWTR). Payload-class satellites include a variety of spacecraft equipped with specific instruments for various scientific and technological missions. These include communications satellites like Starlink; space stations such as the ISS; scientific satellites like the Hubble; Earth observation satellites from companies like Planet Labs, Umbra, and HawkEye 360; GPS; miniature CubeSats for education and research; and military/defense satellites.

Loading next visibility...
Identifier
64840, 2025-135BT
Orbit
SSO
Country
Flag of USUS
Related business
Manufacturer
Spire/Glasgow
Mission
Operational Commercial Communications
Bus & Motor
CUBESAT 16U, Unknown motor
Mass
22 kg wet, 22 kg dry
Launch date (UTC)
2025-06-23 (5 months ago)
Launch vehicle
FALCON 9
Launch site
Air Force Western Test Range (AFWTR)
Object type
Payload
Rocket body
Debris
Shape & HBR
Box + 4 Pan, 1.4 m
Radar Cross Section
0.326 m², Medium (>0.1 m² and < 1m²)

Expand to show TLE details & history
Last TLE update: 15 hours ago

TLE from 15 hours ago
0 LEMUR 2 HUBBLE-5
1 64840U 25135BT  25340.57101184  .00003699  00000-0  35885-3 0  9998
2 64840  97.7586  92.4623 0004530 255.3793 104.6925 14.93256928 25157
Epoch: 2025-12-06T13:42Z
TLE epoch observation values (Epoch: 2025-12-06T13:42:15.422Z)
Latitude
Longitude
171.3012°
Altitude
591.634 km
Speed
7.564 km/s
True Right ascension
06h 09m 50s
True Declination
0° 00' 00"
Sunlit
Object was in full shadow at epoch
Visualization orbit readout
Latitude
Unknown
Longitude
Unknown
Altitude
Unknown
Speed
Unknown
Apparent Right ascension
Unknown
Apparent Declination
Unknown
Sunlit
N/A
Visualization observer readout
Local Sidereal Time
02:45:07
Azimuth
Unknown
Elevation
Unknown
Doppler factor
Unknown
Orbital elements
Apogee altitude
587.959 km
Perigee altitude
581.651 km
Semi-major axis
6,962.942 km
Eccentricity
0.00045
Inclination
97.7586°
RAAN
92.4623°
Arg. of periapsis
255.3793°
True anomaly
104.74271°
Mean anomaly
104.6925°
Eccentric anomaly
104.7176°
Mean motion
3.73555 °/min
Orbital period
96.37 mins
BSTAR
0.00035885
Loading maneuver chart data...
Computing Atmospheric mass density...
Loading historical data...
Loading historical data...
Loading historical data...
Loading historical data...
Loading historical data...
Loading historical data...
Loading historical data...

Documentation

Showing up to 5 results
|